Regional Weather Roundup
Issued by NWS Cleveland, OH

Home | Current Version | Previous Version | Graphics & Text | Print | Product List | Glossary On
Versions: 1 2 3 4 5 6 7 8 9 10 11 12 13 14 15 16 17 18 19 20 21 22 23 24 25 26 27 28 29 30 31 32 33 34 35 36 37 38 39 40 41 42 43 44 45 46 47 48 49 50
000
ASUS41 KCLE 181510
RWRCLE
OHIO REGIONAL WEATHER ROUNDUP
NATIONAL WEATHER SERVICE CLEVELAND, OH
1000 AM EST SUN FEB 18 2018

NOTE: "FAIR" INDICATES FEW OR NO CLOUDS BELOW 12,000 FEET WITH NO
SIGNIFICANT WEATHER AND/OR OBSTRUCTIONS TO VISIBILITY.

OHZ001>008-015>018-024>027-034-035-043-044-181600-
   NORTHWEST OHIO

CITY           SKY/WX    TMP DP  RH WIND       PRES   REMARKS
DEFIANCE       CLOUDY    30  24  78 S6        30.36R WCI  24
FINDLAY        CLOUDY    32  24  72 S8        30.35R WCI  25
TOLEDO EXPRESS CLOUDY    31  25  78 SW6       30.35R WCI  25
TOLEDO EXEC    CLOUDY    32  26  78 SW8       30.37R WCI  25
LIMA           CLOUDY    30  25  81 S9        30.35R WCI  22
$$

OHZ009>014-019>023-028>033-038-089-181600-
   NORTHEAST OHIO

CITY           SKY/WX    TMP DP  RH WIND       PRES   REMARKS
CLE-HOPKINS    CLOUDY    34  28  79 SW6       30.38R WCI  29
CLE-LAKEFRONT  CLOUDY    34  28  79 W6        30.35R WCI  29
CUY CO. ARPT   CLOUDY    34  30  86 W8        30.36R WCI  27
LORAIN-ELYRIA  CLOUDY    33  24  69 NW8       30.35R WCI  26
ASHTABULA      CLOUDY    32  27  81 W6        30.35R WCI  26
AKRON-CANTON   PTSUNNY   35  24  64 W8        30.34R WCI  29
WOOSTER        PTSUNNY   33  25  72 NW5       30.35R WCI  29
MANSFIELD      CLOUDY    33  26  75 S3        30.33S
YOUNGSTOWN     PTSUNNY   34  28  79 W3        30.33R
$$

OHZ042-051>053-060>062-070>072-077>081-181600-
  SOUTHWEST OHIO

CITY           SKY/WX    TMP DP  RH WIND       PRES   REMARKS
CINC-COVINGTON PTSUNNY   35  30  82 SE8       30.36S WCI  29
CINC-LUNKEN    CLOUDY    36  29  75 S8        30.41R
HAMILTON       CLOUDY    35  28  75 S7        30.40R WCI  29
DAYTON         CLOUDY    32  27  81 S7        30.36R WCI  26
WRIGHT-PAT AFB CLOUDY    33  27  76 SE5       30.36R WCI  29
DAYTON GENERAL CLOUDY    33  26  75 S9        30.36R WCI  25
WILMINGTON     CLOUDY    32  26  78 S9        30.36R WCI  24
$$

OHZ036-037-039>041-045>050-054>059-063>069-073>076-082>088-181600-
  CENTRAL AND SOUTHEAST OHIO

CITY           SKY/WX    TMP DP  RH WIND       PRES   REMARKS
COLUMBUS       PTSUNNY   38  27  64 VRB3      30.37S
OSU AIRPORT    FAIR      34  28  79 CALM      30.36S
BOLTON FIELD   MOSUNNY   36  27  69 CALM      30.37S
RICKENBACK AFB PTSUNNY   35  27  70 CALM      30.37R
NEWARK         CLOUDY    37  26  64 CALM      30.35F
MARION         CLOUDY    32  26  78 W3        30.36S HAZE
LANCASTER      FAIR      35  25  66 CALM      30.37S
ZANESVILLE     CLOUDY    37  25  61 NE5       30.36S
NEW PHILLY     NOT AVBL
$$




USA.gov is the U.S. government's official web portal to all federal, state and local government web resources and services.